Date String (YYYY-MM-DD hh:mm:ss) UTC,Instrument flags,Ambient pressure (hPa),Sample flow (lpm),Bypass flow (lpm),Sample temperature (°C),Ambient temperature (°C),ASC tube jacket temperature (°C),LED temperature (°C),Box temperature (°C),Sample RH (%),Span deviation,Mass concentration (μg/m³),Mass concentration (μg/m³),Mass concentration (μg/m³)
DateTimeUTC,F1_M11,P_M11,Q1_M11,Q2_M11,T1_M11,T2_M11,T3_M11,T4_M11,T5_M11,U1_M11,ZSPAN_M11,X0_M11,X2_M11,X1_M11
2021-12-02 04:00:00,,0829.0,4.99,0.00,29.8,28.7,00.0,38.8,31.5,07.7,0000.0,0000.46,0000.30,0000.18
2021-12-02 04:01:00,,0828.7,5.01,0.00,29.8,28.7,00.0,38.8,31.5,07.8,0000.0,0000.44,0000.29,0000.18
2021-12-02 04:02:00,,0829.0,4.99,0.00,29.9,28.8,00.0,38.8,31.5,07.8,0000.0,0000.46,0000.30,0000.17
2021-12-02 04:03:00,,0829.0,4.99,0.00,29.9,28.8,00.0,38.8,31.6,07.8,0000.0,0000.54,0000.31,0000.18
2021-12-02 04:04:00,,0828.8,5.00,0.00,29.9,28.9,00.0,38.8,31.6,07.7,0000.0,0000.60,0000.32,0000.18
2021-12-02 04:05:00,,0828.9,5.01,0.00,29.9,28.9,00.0,38.8,31.6,07.6,0000.0,0001.09,0000.31,0000.17
2021-12-02 04:06:00,,0829.0,4.99,0.00,29.9,28.9,00.0,38.8,31.6,07.6,0000.0,0001.81,0000.31,0000.17
2021-12-02 04:07:00,,0829.0,4.99,0.00,29.9,28.9,00.0,38.8,31.6,07.5,0000.0,0001.78,0000.30,0000.17
2021-12-02 04:08:00,,0828.9,5.02,0.00,29.9,28.9,00.0,38.8,31.7,07.6,0000.0,0001.75,0000.29,0000.17
2021-12-02 04:09:00,,0828.7,5.00,0.00,29.9,28.9,00.0,38.9,31.7,07.7,0000.0,0001.75,0000.29,0000.17
2021-12-02 04:10:00,,0828.6,4.99,0.00,29.9,29.0,00.0,38.9,31.7,07.7,0000.0,0001.76,0000.28,0000.17
2021-12-02 04:11:00,,0828.7,5.01,0.00,29.9,29.0,00.0,38.9,31.7,08.0,0000.0,0001.87,0000.29,0000.17
2021-12-02 04:12:00,,0829.0,4.99,0.00,29.9,29.0,00.0,38.9,31.7,08.2,0000.0,0002.38,0000.30,0000.18
2021-12-02 04:13:00,,0828.9,4.99,0.00,29.9,29.0,00.0,38.9,31.7,08.3,0000.0,0002.36,0000.30,0000.19
2021-12-02 04:14:00,,0829.2,5.01,0.00,29.9,29.0,00.0,38.9,31.6,08.3,0000.0,0002.31,0000.30,0000.19
2021-12-02 04:15:00,,0829.0,5.01,0.00,30.0,29.0,00.0,38.9,31.6,08.3,0000.0,0002.65,0000.30,0000.20
2021-12-02 04:16:00,,0829.0,5.00,0.00,30.0,29.0,00.0,38.9,31.7,08.3,0000.0,0002.31,0000.31,0000.21
2021-12-02 04:17:00,,0828.8,4.99,0.00,30.0,29.0,00.0,38.9,31.7,08.3,0000.0,0001.60,0000.31,0000.22
2021-12-02 04:18:00,,0828.9,5.00,0.00,30.0,29.1,00.0,38.9,31.8,08.3,0000.0,0001.79,0000.32,0000.23
2021-12-02 04:19:00,,0828.8,5.00,0.00,30.0,29.1,00.0,38.9,31.7,08.3,0000.0,0002.04,0000.33,0000.24
2021-12-02 04:20:00,,0829.0,5.00,0.00,30.0,29.1,00.0,38.9,31.7,08.3,0000.0,0002.03,0000.33,0000.25
2021-12-02 04:21:00,,0829.0,5.00,0.00,30.0,29.1,00.0,39.0,31.8,08.3,0000.0,0002.65,0000.37,0000.26
2021-12-02 04:22:00,,0829.1,5.00,0.00,30.0,29.1,00.0,39.0,31.8,08.3,0000.0,0002.91,0000.37,0000.26
2021-12-02 04:23:00,,0829.0,5.00,0.00,30.0,29.1,00.0,39.0,31.8,08.3,0000.0,0002.41,0000.38,0000.27
2021-12-02 04:24:00,,0829.0,5.00,0.00,30.1,29.1,00.0,39.0,31.8,08.3,0000.0,0002.49,0000.41,0000.27
2021-12-02 04:25:00,,0828.9,5.01,0.00,30.1,29.2,00.0,39.0,31.8,08.3,0000.0,0002.53,0000.44,0000.27
2021-12-02 04:26:00,,0828.9,5.00,0.00,30.1,29.2,00.0,39.0,31.8,08.3,0000.0,0002.20,0000.44,0000.27
2021-12-02 04:27:00,,0828.7,5.00,0.00,30.1,29.2,00.0,39.0,31.8,08.3,0000.0,0001.99,0000.45,0000.27
2021-12-02 04:28:00,,0828.8,5.01,0.00,30.1,29.2,00.0,39.0,31.8,08.3,0000.0,0002.06,0000.47,0000.28
2021-12-02 04:29:00,,0828.9,5.00,0.00,30.1,29.2,00.0,39.0,31.8,08.3,0000.0,0002.02,0000.49,0000.27
2021-12-02 04:30:00,,0829.2,4.99,0.00,30.1,29.2,00.0,39.0,31.8,08.3,0000.0,0001.80,0000.51,0000.27
2021-12-02 04:31:00,,0829.1,5.02,0.00,30.1,29.2,00.0,39.0,31.9,08.2,0000.0,0001.89,0000.55,0000.27
2021-12-02 04:32:00,,0828.8,5.00,0.00,30.1,29.2,00.0,39.0,31.9,08.2,0000.0,0001.21,0000.53,0000.27
2021-12-02 04:33:00,,0828.7,5.01,0.00,30.1,29.2,00.0,39.0,31.9,08.2,0000.0,0001.06,0000.55,0000.27
2021-12-02 04:34:00,,0828.7,4.99,0.00,30.1,29.2,00.0,39.1,31.9,08.2,0000.0,0001.10,0000.57,0000.27
2021-12-02 04:35:00,,0828.8,5.01,0.00,30.1,29.2,00.0,39.1,31.8,08.3,0000.0,0001.05,0000.55,0000.27
2021-12-02 04:36:00,,0828.7,4.99,0.00,30.1,29.2,00.0,39.1,31.8,08.3,0000.0,0001.02,0000.53,0000.27
2021-12-02 04:37:00,,0828.7,5.00,0.00,30.1,29.2,00.0,39.1,31.8,08.3,0000.0,0001.03,0000.53,0000.27
2021-12-02 04:38:00,,0828.7,5.00,0.00,30.1,29.2,00.0,39.1,31.7,08.2,0000.0,0001.01,0000.53,0000.27
2021-12-02 04:39:00,,0828.7,5.00,0.00,30.1,29.2,00.0,39.1,31.7,08.3,0000.0,0000.91,0000.49,0000.26
2021-12-02 04:40:00,,0828.7,4.99,0.00,30.1,29.2,00.0,39.1,31.7,08.3,0000.0,0000.84,0000.46,0000.26
2021-12-02 04:41:00,,0828.7,5.00,0.00,30.1,29.2,00.0,39.1,31.7,08.3,0000.0,0000.85,0000.43,0000.26
2021-12-02 04:42:00,,0828.7,5.01,0.00,30.1,29.2,00.0,39.0,31.7,08.2,0000.0,0000.78,0000.40,0000.26
2021-12-02 04:43:00,,0828.7,5.00,0.00,30.1,29.2,00.0,39.1,31.8,08.1,0000.0,0000.74,0000.39,0000.26
2021-12-02 04:44:00,,0828.7,4.99,0.00,30.1,29.2,00.0,39.1,31.8,08.1,0000.0,0000.64,0000.36,0000.25
2021-12-02 04:45:00,,0828.7,5.00,0.00,30.1,29.2,00.0,39.1,31.8,08.0,0000.0,0000.57,0000.33,0000.25
2021-12-02 04:46:00,,0828.7,5.00,0.00,30.1,29.2,00.0,39.0,31.8,08.0,0000.0,0000.55,0000.32,0000.25
2021-12-02 04:47:00,,0828.7,5.00,0.00,30.1,29.2,00.0,39.0,31.8,07.9,0000.0,0000.58,0000.32,0000.25
2021-12-02 04:48:00,,0828.7,4.99,0.00,30.1,29.2,00.0,39.0,31.8,08.0,0000.0,0000.56,0000.31,0000.25
2021-12-02 04:49:00,,0829.1,5.02,0.00,30.1,29.2,00.0,39.1,31.8,08.2,0000.0,0000.56,0000.31,0000.25
2021-12-02 04:50:00,,0829.2,5.00,0.00,30.1,29.2,00.0,39.0,31.8,08.3,0000.0,0000.57,0000.32,0000.25
2021-12-02 04:51:00,,0829.3,4.99,0.00,30.1,29.2,00.0,39.0,31.8,08.3,0000.0,0000.66,0000.35,0000.26
2021-12-02 04:52:00,,0828.8,5.01,0.00,30.1,29.2,00.0,39.1,31.9,08.3,0000.0,0000.55,0000.34,0000.25
2021-12-02 04:53:00,,0828.8,4.99,0.00,30.1,29.2,00.0,39.1,31.8,08.4,0000.0,0000.59,0000.36,0000.26
2021-12-02 04:54:00,,0828.9,5.01,0.00,30.1,29.2,00.0,39.1,31.8,08.4,0000.0,0000.69,0000.40,0000.26
2021-12-02 04:55:00,,0828.9,4.99,0.00,30.1,29.2,00.0,39.1,31.8,08.4,0000.0,0000.82,0000.45,0000.27
2021-12-02 04:56:00,,0828.9,5.00,0.00,30.1,29.2,00.0,39.1,31.8,08.5,0000.0,0000.82,0000.45,0000.28
2021-12-02 04:57:00,,0828.9,5.01,0.00,30.1,29.2,00.0,39.1,31.8,08.6,0000.0,0000.84,0000.47,0000.29
2021-12-02 04:58:00,,0829.0,4.99,0.00,30.1,29.2,00.0,39.1,31.8,08.6,0000.0,0000.84,0000.49,0000.31
2021-12-02 04:59:00,,0829.0,5.01,0.00,30.1,29.2,00.0,39.1,31.8,08.6,0000.0,0000.90,0000.51,0000.31
